Location: Newark
(43.6583°N, 1.6617°E)
Time: 10:57:25
(UTC+00:00)

Vanguard 2 Rocket - Pass Details

Date: 20 August 2019
Orbit: 554 x 3326 km, 32.9° (Epoch: 22 September)

Event Time Altitude Azimuth Distance (km) Brightness Sun altitude
Exits shadow 03:46:12 15° 227° (SW) 4,451 9.8 -13.4°
Maximum altitude 03:58:38 51° 159° (SSE) 3,474 9.7 -11.4°
Drops below altitude 10° 04:17:31 10° 92° (E) 6,284 12.2 -8.4°
Sets 04:22:33 0° 89° (E) 7,243 12.9 -7.6°
